TimeCDT,TemperatureF,Dew PointF,Humidity,Sea Level PressureIn,VisibilityMPH,Wind Direction,Wind SpeedMPH,Gust SpeedMPH,PrecipitationIn,Events,Conditions,WindDirDegrees,DateUTC
12:15 AM,62.6,55.4,77,30.07,10.0,Calm,Calm,-,N/A,,Overcast,0,2013-08-11 05:15:00
12:35 AM,62.6,53.6,72,30.08,10.0,Calm,Calm,-,N/A,,Overcast,0,2013-08-11 05:35:00
12:54 AM,60.8,55.4,82,30.08,10.0,Calm,Calm,-,N/A,,Overcast,0,2013-08-11 05:54:00
1:15 AM,62.6,55.4,77,30.08,10.0,Calm,Calm,-,N/A,,Overcast,0,2013-08-11 06:15:00
1:34 AM,62.6,53.6,72,30.08,10.0,Calm,Calm,-,N/A,,Overcast,0,2013-08-11 06:34:00
1:55 AM,60.8,55.4,82,30.08,10.0,Calm,Calm,-,N/A,,Overcast,0,2013-08-11 06:55:00
2:14 AM,60.8,55.4,82,30.08,10.0,Calm,Calm,-,N/A,,Overcast,0,2013-08-11 07:14:00
2:34 AM,60.8,55.4,82,30.08,10.0,Calm,Calm,-,N/A,,Overcast,0,2013-08-11 07:34:00
2:54 AM,60.8,55.4,82,30.09,10.0,Calm,Calm,-,N/A,,Overcast,0,2013-08-11 07:54:00
3:14 AM,60.8,55.4,82,30.08,10.0,NE,3.5,-,N/A,,Overcast,50,2013-08-11 08:14:00
3:35 AM,60.8,55.4,82,30.08,10.0,Calm,Calm,-,N/A,,Overcast,0,2013-08-11 08:35:00
3:54 AM,60.8,55.4,82,30.08,10.0,Calm,Calm,-,N/A,,Overcast,0,2013-08-11 08:54:00
4:15 AM,60.8,55.4,82,30.08,10.0,North,3.5,-,N/A,,Overcast,350,2013-08-11 09:15:00
4:34 AM,60.8,55.4,82,30.08,10.0,Calm,Calm,-,N/A,,Overcast,0,2013-08-11 09:34:00
4:55 AM,59.0,55.4,88,30.08,10.0,Calm,Calm,-,N/A,,Mostly Cloudy,0,2013-08-11 09:55:00
5:15 AM,57.2,55.4,94,30.09,10.0,NW,10.4,-,N/A,,Mostly Cloudy,320,2013-08-11 10:15:00
5:34 AM,57.2,57.2,100,30.10,10.0,North,8.1,-,N/A,,Overcast,350,2013-08-11 10:34:00
5:55 AM,57.2,55.4,94,30.10,7.0,North,4.6,-,N/A,,Mostly Cloudy,350,2013-08-11 10:55:00
6:14 AM,57.2,55.4,94,30.11,7.0,North,5.8,-,N/A,,Mostly Cloudy,10,2013-08-11 11:14:00
6:35 AM,55.4,55.4,100,30.11,4.0,North,4.6,-,N/A,,Scattered Clouds,360,2013-08-11 11:35:00
6:54 AM,55.4,55.4,100,30.11,5.0,North,5.8,-,N/A,,Scattered Clouds,360,2013-08-11 11:54:00
7:15 AM,59.0,57.2,94,30.11,10.0,North,8.1,-,N/A,,Overcast,360,2013-08-11 12:15:00
7:34 AM,59.0,57.2,94,30.11,10.0,North,8.1,-,N/A,,Overcast,360,2013-08-11 12:34:00
7:54 AM,60.8,57.2,88,30.11,10.0,NNE,5.8,-,N/A,,Overcast,20,2013-08-11 12:54:00
8:15 AM,60.8,57.2,88,30.11,10.0,North,6.9,-,N/A,,Overcast,360,2013-08-11 13:15:00
8:34 AM,60.8,57.2,88,30.11,10.0,North,6.9,-,N/A,,Overcast,10,2013-08-11 13:34:00
8:55 AM,62.6,57.2,82,30.11,10.0,North,5.8,-,N/A,,Overcast,360,2013-08-11 13:55:00
9:14 AM,62.6,57.2,82,30.11,10.0,North,8.1,-,N/A,,Overcast,350,2013-08-11 14:14:00
9:34 AM,62.6,57.2,82,30.11,10.0,NNW,9.2,-,N/A,,Mostly Cloudy,340,2013-08-11 14:34:00
9:55 AM,62.6,55.4,77,30.11,10.0,NNE,6.9,-,N/A,,Scattered Clouds,20,2013-08-11 14:55:00
10:14 AM,64.4,55.4,73,30.11,10.0,North,9.2,-,N/A,,Scattered Clouds,350,2013-08-11 15:14:00
10:35 AM,66.2,55.4,68,30.11,10.0,North,11.5,-,N/A,,Scattered Clouds,360,2013-08-11 15:35:00
10:54 AM,66.2,55.4,68,30.11,10.0,North,10.4,-,N/A,,Scattered Clouds,350,2013-08-11 15:54:00
11:14 AM,66.2,55.4,68,30.12,10.0,North,8.1,-,N/A,,Scattered Clouds,350,2013-08-11 16:14:00
11:35 AM,66.2,55.4,68,30.11,10.0,North,6.9,-,N/A,,Scattered Clouds,350,2013-08-11 16:35:00
11:54 AM,68.0,55.4,64,30.11,10.0,North,10.4,-,N/A,,Scattered Clouds,350,2013-08-11 16:54:00
12:14 PM,68.0,55.4,64,30.11,10.0,NNE,9.2,-,N/A,,Mostly Cloudy,20,2013-08-11 17:14:00
12:35 PM,69.8,53.6,56,30.11,10.0,NNE,6.9,-,N/A,,Mostly Cloudy,20,2013-08-11 17:35:00
12:54 PM,68.0,55.4,64,30.11,10.0,NNE,9.2,-,N/A,,Mostly Cloudy,20,2013-08-11 17:54:00
1:15 PM,68.0,55.4,64,30.11,10.0,NNW,6.9,-,N/A,,Mostly Cloudy,340,2013-08-11 18:15:00
1:34 PM,69.8,55.4,60,30.11,10.0,North,9.2,-,N/A,,Mostly Cloudy,360,2013-08-11 18:34:00
1:55 PM,69.8,55.4,60,30.10,10.0,NNW,5.8,-,N/A,,Scattered Clouds,330,2013-08-11 18:55:00
2:14 PM,71.6,53.6,53,30.10,10.0,North,5.8,-,N/A,,Scattered Clouds,360,2013-08-11 19:14:00
2:34 PM,71.6,53.6,53,30.10,10.0,NNE,4.6,-,N/A,,Mostly Cloudy,20,2013-08-11 19:34:00
2:55 PM,73.4,53.6,50,30.10,10.0,North,9.2,-,N/A,,Scattered Clouds,350,2013-08-11 19:55:00
3:14 PM,73.4,53.6,50,30.09,10.0,NNW,5.8,-,N/A,,Scattered Clouds,330,2013-08-11 20:14:00
3:34 PM,73.4,53.6,50,30.08,10.0,North,4.6,-,N/A,,Scattered Clouds,360,2013-08-11 20:34:00
3:55 PM,73.4,53.6,50,30.08,10.0,North,8.1,-,N/A,,Scattered Clouds,10,2013-08-11 20:55:00
4:14 PM,73.4,53.6,50,30.08,10.0,NNW,5.8,-,N/A,,Clear,330,2013-08-11 21:14:00
4:35 PM,73.4,53.6,50,30.08,10.0,NNW,9.2,-,N/A,,Clear,340,2013-08-11 21:35:00
4:54 PM,73.4,51.8,47,30.07,10.0,North,5.8,-,N/A,,Clear,360,2013-08-11 21:54:00
5:14 PM,75.2,51.8,44,30.07,10.0,WNW,11.5,-,N/A,,Scattered Clouds,300,2013-08-11 22:14:00
5:34 PM,75.2,53.6,47,30.07,10.0,NW,5.8,-,N/A,,Scattered Clouds,310,2013-08-11 22:34:00
5:54 PM,75.2,51.8,44,30.06,10.0,NNW,10.4,-,N/A,,Scattered Clouds,340,2013-08-11 22:54:00
6:15 PM,73.4,51.8,47,30.06,10.0,NNW,9.2,-,N/A,,Scattered Clouds,330,2013-08-11 23:15:00
6:34 PM,73.4,51.8,47,30.06,10.0,NNW,9.2,-,N/A,,Clear,340,2013-08-11 23:34:00
6:55 PM,73.4,51.8,47,30.05,10.0,NNW,5.8,-,N/A,,Clear,340,2013-08-11 23:55:00
7:14 PM,73.4,51.8,47,30.05,10.0,North,8.1,-,N/A,,Clear,350,2013-08-12 00:14:00
7:34 PM,71.6,53.6,53,30.05,10.0,NNW,6.9,-,N/A,,Clear,340,2013-08-12 00:34:00
7:55 PM,71.6,53.6,53,30.05,10.0,North,5.8,-,N/A,,Clear,350,2013-08-12 00:55:00
8:14 PM,68.0,53.6,60,30.05,10.0,North,4.6,-,N/A,,Clear,350,2013-08-12 01:14:00
8:35 PM,66.2,53.6,64,30.05,10.0,North,3.5,-,N/A,,Clear,360,2013-08-12 01:35:00
8:54 PM,66.2,53.6,64,30.06,10.0,Calm,Calm,-,N/A,,Clear,0,2013-08-12 01:54:00
9:14 PM,66.2,51.8,60,30.06,10.0,Calm,Calm,-,N/A,,Clear,0,2013-08-12 02:14:00
9:34 PM,64.4,51.8,64,30.06,10.0,Calm,Calm,-,N/A,,Clear,0,2013-08-12 02:34:00
9:54 PM,62.6,51.8,68,30.06,10.0,Calm,Calm,-,N/A,,Clear,0,2013-08-12 02:54:00
10:15 PM,60.8,51.8,72,30.07,10.0,Calm,Calm,-,N/A,,Clear,0,2013-08-12 03:15:00
10:34 PM,60.8,51.8,72,30.07,10.0,Calm,Calm,-,N/A,,Clear,0,2013-08-12 03:34:00
10:54 PM,60.8,51.8,72,30.07,10.0,Calm,Calm,-,N/A,,Clear,0,2013-08-12 03:54:00
11:15 PM,53.6,50.0,88,30.07,10.0,Calm,Calm,-,N/A,,Clear,0,2013-08-12 04:15:00
11:34 PM,55.4,51.8,88,30.07,10.0,Calm,Calm,-,N/A,,Clear,0,2013-08-12 04:34:00
11:55 PM,55.4,51.8,88,30.07,10.0,Calm,Calm,-,N/A,,Clear,0,2013-08-12 04:55:00